Portada
METAR-TAF:

METAR-TAF

Aeroports :

Mount Gambier, Austràlia

latitud: 37-44-44S, longitud: 140-47-07E, altitud: 65 m

Observació

L'informe es va fer fa 51 minuts, a les 00:00 UTC
Vent 5 kt del Oest
Temperatura 18°C
Humitat 73%
Pressió 1011 hPa
Visibilitat 10 km o més
Núvols disperses a una alçada de 2100 ft
Cel ennuvolat a una alçada de 9900 ft

METAR: YMTG 020000Z AUTO 26005KT 9999 // SCT021 BKN099 18/13 Q1011

Hora: 11:21 (00:51 UTC)


TAF: manca

Observacions i pronòstics meteorològics de més de 4000 aeroports (METAR i TAF).

Les estacions disponibles són els punts grocs i vermells al mapa.

Posi el ratolí al punt desitjat per veure el nom de l'estació.

Feu clic per veure les observacions i els pronòstics meteorològics.

Per canviar el mapa: feu clic els botons verds amb una creu de color negre per apropar; al botó verd amb un guió per allunyar la imatge; o en les fletxes verdes per a mapes adjacents.


METAR-TAF: